OE7SBH-WX Weather Reports


Display with metric or nautical units.
time (UTC)temp
F
wind
direction
speed
MPH
gust
MPH
rain 1hr
in
rain 24hr
in
rain mn
in
humidity
%
barometer
mb
20260906131521 82 342 4.0 9.0 0.00 0.00 0.00 48 1029.7
20260906130531 81 357 3.0 8.0 0.00 0.00 0.00 50 1029.8
20260906125524 81 336 4.0 11.0 0.00 0.00 0.00 50 1030.0
20260906124531 80 329 5.0 10.0 0.00 0.00 0.00 51 1030.0
20260906123545 80 327 6.0 13.0 0.00 0.00 0.00 52 1030.1
20260906122523 80 343 4.0 9.0 0.00 0.00 0.00 53 1030.3
20260906121525 79 330 5.0 13.0 0.00 0.00 0.00 54 1030.3
20260906120521 80 346 4.0 8.0 0.00 0.00 0.00 53 1030.5
20260906115525 78 348 5.0 11.0 0.00 0.00 0.00 55 1030.6
20260906114517 79 350 4.0 8.0 0.00 0.00 0.00 54 1030.7
20260906113525 78 349 3.0 8.0 0.00 0.00 0.00 56 1030.6
20260906112557 77 9 3.0 9.0 0.00 0.00 0.00 58 1030.9
20260906111545 76 321 5.0 10.0 0.00 0.00 0.00 58 1031.0
20260906110517 76 341 4.0 8.0 0.00 0.00 0.00 59 1031.2
20260906105525 77 64 1.0 4.0 0.00 0.00 0.00 59 1031.3
20260906104517 75 4 2.0 7.0 0.00 0.00 0.00 61 1031.5
20260906103525 75 343 2.0 7.0 0.00 0.00 0.00 62 1031.6
20260906102529 74 350 2.0 6.0 0.00 0.00 0.00 63 1031.8
20260906101531 74 340 3.0 7.0 0.00 0.00 0.00 64 1031.8
20260906100531 73 333 4.0 8.0 0.00 0.00 0.00 65 1031.9
20260906095525 72 335 4.0 8.0 0.00 0.00 0.00 66 1032.2
20260906094537 72 7 3.0 9.0 0.00 0.00 0.00 67 1032.2
20260906093525 72 4 3.0 9.0 0.00 0.00 0.00 69 1032.4
20260906092517 70 334 4.0 8.0 0.00 0.00 0.00 71 1032.5
20260906091545 71 343 4.0 7.0 0.00 0.00 0.00 70 1032.7
20260906090537 70 339 3.0 8.0 0.00 0.00 0.00 71 1032.7
20260906085545 69 339 3.0 6.0 0.00 0.00 0.00 73 1032.8
20260906084531 69 335 3.0 7.0 0.00 0.00 0.00 74 1032.8
20260906083525 67 333 3.0 6.0 0.00 0.00 0.00 78 1033.0
20260906082517 68 339 2.0 4.0 0.00 0.00 0.00 77 1033.1
20260906081525 67 4 2.0 4.0 0.00 0.00 0.00 78 1033.1
20260906080517 66 1 1.0 3.0 0.00 0.00 0.00 79 1033.0
20260906075534 65 313 1.0 3.0 0.00 0.00 0.00 81 1033.2
20260906074530 64 330 2.0 4.0 0.00 0.00 0.00 84 1033.3
20260906073531 64 337 3.0 6.0 0.00 0.00 0.00 84 1033.2
20260906072553 64 46 2.0 3.0 0.00 0.00 0.00 85 1033.2
20260906071553 64 23 1.0 3.0 0.00 0.00 0.00 84 1033.5
20260906070523 64 351 1.0 2.0 0.00 0.00 0.00 86 1033.6
20260906065533 61 5 1.0 2.0 0.00 0.00 0.00 91 1033.6
20260906064523 61 48 1.0 2.0 0.00 0.00 0.00 92 1033.4
20260906063536 60 31 1.0 3.0 0.00 0.00 0.00 93 1033.4
20260906062521 59 328 3.0 4.0 0.00 0.00 0.00 95 1033.4
20260906061536 58 330 2.0 4.0 0.00 0.00 0.00 96 1033.5
20260906060523 58 20 1.0 2.0 0.00 0.00 0.00 95 1033.4
20260906055553 58 330 2.0 3.0 0.00 0.00 0.00 95 1033.3
20260906054523 58 344 1.0 2.0 0.00 0.00 0.00 95 1033.3
20260906053533 58 126 0.0 1.0 0.00 0.00 0.00 95 1033.1
20260906052523 58 126 0.0 1.0 0.00 0.00 0.00 95 1033.0
20260906051533 58 127 0.0 1.0 0.00 0.00 0.00 94 1033.1
20260906050523 59 0.0 0.0 0.00 0.00 0.00 94 1033.0
20260906045533 58 0.0 0.0 0.00 0.00 0.00 94 1032.9
20260906044523 58 122 1.0 2.0 0.00 0.00 0.00 95 1032.8
20260906043533 58 57 0.0 1.0 0.00 0.00 0.00 95 1033.0
20260906042523 59 0.0 0.0 0.00 0.00 0.00 94 1033.0
20260906041533 59 162 1.0 2.0 0.00 0.00 0.00 94 1032.7
20260906040543 59 0.0 0.0 0.00 0.00 0.00 94 1032.8
20260906035553 58 48 0.0 1.0 0.00 0.00 0.00 94 1032.7
20260906034531 58 49 0.0 1.0 0.00 0.00 0.00 95 1032.6
20260906033533 58 82 1.0 2.0 0.00 0.00 0.00 95 1032.6
20260906032543 58 93 1.0 1.0 0.00 0.00 0.00 95 1032.5
20260906031533 58 98 1.0 2.0 0.00 0.00 0.00 95 1032.6
20260906030603 58 0.0 0.0 0.00 0.00 0.00 95 1032.5
20260906025533 58 209 0.0 1.0 0.00 0.00 0.00 95 1032.6
20260906024523 58 205 1.0 2.0 0.00 0.00 0.00 95 1032.6
20260906023533 58 0.0 0.0 0.00 0.00 0.00 95 1032.5
20260906022523 58 0.0 0.0 0.00 0.00 0.00 95 1032.5
20260906021613 58 97 0.0 1.0 0.00 0.00 0.00 95 1032.4
20260906020543 58 97 0.0 1.0 0.00 0.00 0.00 95 1032.6
20260906015613 59 201 0.0 1.0 0.00 0.00 0.00 94 1032.5
20260906014523 59 0.0 0.0 0.00 0.00 0.00 94 1032.5
20260906013533 60 0.0 0.0 0.00 0.00 0.00 93 1032.4
20260906012523 60 237 1.0 2.0 0.00 0.00 0.00 93 1032.4
20260906011533 60 0.0 0.0 0.00 0.00 0.00 93 1032.4
20260906010543 60 355 0.0 1.0 0.00 0.00 0.00 93 1032.3
20260906005553 60 338 0.0 1.0 0.00 0.00 0.00 92 1032.4
20260906004603 61 332 1.0 2.0 0.00 0.00 0.00 91 1032.4
20260906003533 61 329 0.0 2.0 0.00 0.00 0.00 91 1032.4
20260906002521 61 0.0 0.0 0.00 0.00 0.00 91 1032.4
20260906001533 60 334 0.0 1.0 0.00 0.00 0.00 92 1032.4
20260906000523 60 334 0.0 1.0 0.00 0.00 0.00 91 1032.3
20260905235533 61 339 1.0 2.0 0.00 0.00 0.00 91 1032.4
20260905234523 61 21 1.0 2.0 0.00 0.00 0.00 91 1032.3
20260905233533 61 21 1.0 2.0 0.00 0.00 0.00 90 1032.2
20260905232644 60 0.0 0.0 0.00 0.00 0.00 91 1032.2
20260905231553 60 22 0.0 1.0 0.00 0.00 0.00 91 1032.2
20260905230517 61 18 0.0 1.0 0.00 0.00 0.00 90 1032.3
20260905225525 61 349 0.0 1.0 0.00 0.00 0.00 89 1032.2
20260905224517 61 264 1.0 2.0 0.00 0.00 0.00 89 1032.1
20260905223525 61 170 1.0 3.0 0.00 0.00 0.00 90 1032.1
20260905222517 61 284 0.0 2.0 0.00 0.00 0.00 90 1032.0
20260905221525 61 69 1.0 2.0 0.00 0.00 0.00 90 1032.1
20260905220517 60 0.0 0.0 0.00 0.00 0.00 91 1032.1
20260905215525 61 13 0.0 1.0 0.00 0.00 0.00 89 1031.8
20260905214517 61 12 0.0 1.0 0.00 0.00 0.00 90 1031.9
20260905213525 62 347 0.0 1.0 0.00 0.00 0.00 88 1031.6
20260905212517 62 284 0.0 1.0 0.00 0.00 0.00 88 1031.7
20260905211525 62 345 0.0 1.0 0.00 0.00 0.00 87 1031.7
20260905210517 62 347 1.0 2.0 0.00 0.00 0.00 86 1031.7
20260905205545 62 315 0.0 1.0 0.00 0.00 0.00 87 1031.5
20260905204517 62 316 1.0 2.0 0.00 0.00 0.00 88 1031.6
20260905203545 63 348 1.0 3.0 0.00 0.00 0.00 85 1031.7
20260905202537 64 267 0.0 1.0 0.00 0.00 0.00 84 1031.6
20260905201521 64 248 2.0 2.0 0.00 0.00 0.00 85 1031.5
20260905200533 64 102 0.0 1.0 0.00 0.00 0.00 87 1031.6
20260905195525 65 190 0.0 1.0 0.00 0.00 0.00 84 1031.5
20260905194613 66 139 2.0 4.0 0.00 0.00 0.00 82 1031.4
20260905193525 65 255 1.0 2.0 0.00 0.00 0.00 84 1031.4
20260905192533 65 288 0.0 1.0 0.00 0.00 0.00 85 1031.2
20260905191525 65 124 2.0 3.0 0.00 0.00 0.00 85 1031.1
20260905190533 66 145 0.0 1.0 0.00 0.00 0.00 81 1031.1
20260905185525 66 143 1.0 1.0 0.00 0.00 0.00 82 1031.0
20260905184533 66 142 0.0 1.0 0.00 0.00 0.00 82 1030.9
20260905183525 67 142 0.0 1.0 0.00 0.00 0.00 81 1030.7
20260905182515 67 228 2.0 3.0 0.00 0.00 0.00 81 1030.6
20260905181526 67 309 1.0 3.0 0.00 0.00 0.00 81 1030.5
20260905180533 68 310 0.0 1.0 0.00 0.00 0.00 78 1030.3
20260905175525 68 310 0.0 1.0 0.00 0.00 0.00 78 1030.1
20260905174536 68 329 1.0 3.0 0.00 0.00 0.00 77 1030.0
20260905173546 68 333 3.0 6.0 0.00 0.00 0.00 77 1029.9
20260905172516 68 332 3.0 6.0 0.00 0.00 0.00 76 1029.9
20260905171525 69 328 2.0 3.0 0.00 0.00 0.00 75 1029.8
20260905170553 70 347 1.0 2.0 0.00 0.00 0.00 74 1029.7
20260905165526 70 0.0 0.0 0.00 0.00 0.00 73 1029.7
20260905164536 69 267 2.0 3.0 0.00 0.00 0.00 74 1029.6
20260905163526 69 255 2.0 3.0 0.00 0.00 0.00 74 1029.6
20260905162532 70 327 1.0 3.0 0.00 0.00 0.00 73 1029.5
20260905161526 70 348 1.0 2.0 0.00 0.00 0.00 72 1029.4
20260905160524 71 323 1.0 3.0 0.00 0.00 0.00 71 1029.3
20260905155525 70 329 5.0 10.0 0.00 0.00 0.00 72 1029.3
20260905154557 70 322 4.0 8.0 0.00 0.00 0.00 71 1029.1
20260905153525 70 335 6.0 10.0 0.00 0.00 0.00 72 1029.2
20260905152517 70 334 7.0 11.0 0.00 0.00 0.00 73 1029.3
20260905151525 70 333 6.0 9.0 0.00 0.00 0.00 73 1029.3
20260905150537 71 329 6.0 11.0 0.00 0.00 0.00 71 1029.2
20260905145526 71 340 8.0 15.0 0.00 0.00 0.00 71 1029.1
20260905144518 70 329 8.0 14.0 0.00 0.00 0.00 72 1029.2
20260905143526 71 329 7.0 14.0 0.00 0.00 0.00 71 1029.1
20260905142518 71 320 8.0 14.0 0.00 0.00 0.00 70 1029.1
20260905141526 71 331 11.0 21.0 0.00 0.00 0.00 70 1028.8
20260905140551 71 331 12.0 21.0 0.00 0.00 0.00 70 1028.7
20260905135526 72 323 14.0 26.0 0.00 0.00 0.00 69 1028.6
20260905134518 72 330 12.0 19.0 0.00 0.00 0.00 69 1028.4
20260905133526 73 324 12.0 22.0 0.00 0.00 0.00 67 1028.1
20260905132518 74 325 13.0 23.0 0.00 0.00 0.00 66 1028.1